{"data":{"norad_id":61662,"intl_designator":"2024-193B","name":"STARLINK-32310","alt_names":[],"object_type":"PAYLOAD","status":"ACTIVE","operator":null,"country":"US","launch_date":"2024-10-26","launch_site_code":"AFETR","launch_vehicle":null,"mission":null,"orbit_class":"UNKNOWN","rcs_meters":null,"size_class":null,"mass_kg":null,"dimensions":null,"purposes":["comms"],"wikipedia_slug":null,"has_3d_model":false,"image_url":null,"decayed_at":null,"tle_current":{"epoch":"2026-09-21T06:50:32.324640Z","epoch_age_seconds":124246,"freshness":"FRESH","line1":"1 61662U 24193B   26264.28509635 -.00000916  00000+0 -17760-4 0  9990","line2":"2 61662  53.1596 261.0365 0001180  96.6830 263.4306 15.31704352106492","mean_motion":15.31704352,"eccentricity":0.000118,"inclination_deg":53.1596,"raan_deg":261.0365,"arg_perigee_deg":96.683,"mean_anomaly_deg":263.4306,"bstar":-1.776e-5,"rev_number":10649,"period_min":94.012920843356,"perigee_km":469.91885621621,"apogee_km":471.53518812544,"semimajor_km":6848.8640221708,"source":"CELESTRAK","updated_at":"2026-09-22T09:00:49.399775Z"}}}